Showing default

ICEYE-X66, 66301

Orbit data source: Space-Track

ICEYE-X66, 66301 is an Emirian payload satellite in LEO that was launched on Sun, 02 Nov 2025 UTC via an FALCON 9 launch vehicle from the Air Force Eastern Test Range (AFETR). Payload-class satellites include a variety of spacecraft equipped with specific instruments for various scientific and technological missions. These include communications satellites like Starlink; space stations such as the ISS; scientific satellites like the Hubble; Earth observation satellites from companies like Planet Labs, Umbra, and HawkEye 360; GPS; miniature CubeSats for education and research; and military/defense satellites.

Loading next visibility...
Identifier
66301, 2025-248J
Orbit
LEO
Country
Flag of AEAE / UAE
Related business
None
Manufacturer
SP42
Mission
Operational Commercial Radar Imaging
Bus & Motor
ICEYE, Unknown motor
Mass
80 kg wet, 80 kg dry
Launch date (UTC)
2025-11-02 (8 months ago)
Launch vehicle
FALCON 9
Launch site
Air Force Eastern Test Range (AFETR)
Object type
Payload
Rocket body
Debris
Shape & HBR
Box + 1 Pan, 2.4 m
Radar Cross Section
0.776 m², Medium (>0.1 m² and < 1m²)

Expand to show TLE details & history
Last TLE update: 14 hours ago

TLE from 14 hours ago
0 ICEYE-X66
1 66301U 25248J   26171.28057961  .00001501  00000-0  10908-3 0  9990
2 66301  45.4017 117.2466 0004485  32.8404 327.2756 15.09001875 35970
Epoch: 2026-06-20T06:44Z
TLE epoch observation values (Epoch: 2026-06-20T06:44:02.078Z)
Latitude
-0.00001°
Longitude
107.74046°
Altitude
536.682 km
Speed
7.597 km/s
True Right ascension
07h 48m 59s
True Declination
0° 00' 00"
Sunlit
Object was in daylight at epoch
Visualization orbit readout
Latitude
Unknown
Longitude
Unknown
Altitude
Unknown
Speed
Unknown
Apparent Right ascension
Unknown
Apparent Declination
Unknown
Sunlit
N/A
Visualization observer readout
Local Sidereal Time
07:17:06
Azimuth
Unknown
Elevation
Unknown
Doppler factor
Unknown
Orbital elements
Apogee altitude
543.881 km
Perigee altitude
537.675 km
Semi-major axis
6,918.915 km
Eccentricity
0.00045
Inclination
45.4017°
RAAN
117.2466°
Arg. of periapsis
32.8404°
True anomaly
327.2478°
Mean anomaly
327.2756°
Eccentric anomaly
327.2617°
Mean motion
3.77126 °/min
Orbital period
95.46 mins
BSTAR
0.00010908
Loading maneuver chart data...
Computing Atmospheric mass density...
Loading historical data...
Loading historical data...
Loading historical data...
Loading historical data...
Loading historical data...
Loading historical data...
Loading historical data...

Documentation

Showing up to 5 results
|